COSMOS 1275 DEB, 13073

Orbit data source: Space-Track

COSMOS 1275 DEB, 13073 is space debris in LEO originally from a launch on Thu, 04 Jun 1981 UTC launched from the Plesetsk Missile And Space Complex (PKMTR). Debris objects in space refer to the collection of defunct objects orbiting the Earth. Examples of debris include non-operational satellites, rocket bodies, and fragments generated from explosions, collisions, or faulty payload assembly.

Loading next visibility...
Identifier
13073, 1981-053EZ
Orbit
LEO
Country
Flag of CISCIS
Related business
Manufacturer
Unknown
Mission
Spacecraft
Bus & Motor
Unknown
Mass
Unknown
Launch date (UTC)
1981-06-04 (45 years ago)
Launch vehicle
Unknown
Launch site
Plesetsk Missile And Space Complex (PKMTR)
Object type
Payload
Rocket body
Debris
Shape & HBR
Unknown shape, 0.1 m
Radar Cross Section
Small (<0.1 m²)

Expand to show TLE details & history
Last TLE update: 8 hours ago

TLE from 8 hours ago
0 COSMOS 1275 DEB
1 13073U 81053EZ  25345.31004395  .00000274  00000-0  27715-3 0  9993
2 13073  82.9387  77.9303 0086213 265.8478 163.4450 13.72384594219564
Epoch: 2025-12-11T07:26Z
TLE epoch observation values (Epoch: 2025-12-11T07:26:27.797Z)
Latitude
68.51181°
Longitude
-95.71092°
Altitude
1,063.833 km
Speed
7.296 km/s
True Right ascension
06h 24m 41s
True Declination
68° 23' 57"
Sunlit
Object was in full shadow at epoch
Visualization orbit readout
Latitude
Unknown
Longitude
Unknown
Altitude
Unknown
Speed
Unknown
Apparent Right ascension
Unknown
Apparent Declination
Unknown
Sunlit
N/A
Visualization observer readout
Local Sidereal Time
13:55:45
Azimuth
Unknown
Elevation
Unknown
Doppler factor
Unknown
Orbital elements
Apogee altitude
1,051.682 km
Perigee altitude
924.668 km
Semi-major axis
7,366.312 km
Eccentricity
0.00862
Inclination
82.9387°
RAAN
77.9303°
Arg. of periapsis
265.8478°
True anomaly
163.72362°
Mean anomaly
163.445°
Eccentric anomaly
163.58459°
Mean motion
3.43295 °/min
Orbital period
104.87 mins
BSTAR
0.00027715
Loading maneuver chart data...
Computing Atmospheric mass density...

Documentation

Showing up to 5 results
|